Preview of NWS' New Version of Forecast
This preview is not operational and should not be used for support decisions.

Regional Weather Roundup (RWR)

Issued by National Weather Service (NWS)

                            
000
ASUS43 KMKX 201110
RWRWI 

WISCONSIN REGIONAL WEATHER ROUNDUP
NATIONAL WEATHER SERVICE MILWAUKEE/SULLIVAN WI
500 AM CST WED FEB 20 2019

NOTE: "FAIR" INDICATES FEW OR NO CLOUDS BELOW 12,000 FEET WITH NO
SIGNIFICANT WEATHER AND/OR OBSTRUCTIONS TO VISIBILITY.

WIZ001-002-006>008-014>016-023>028-201200-
NORTHWEST WISCONSIN
  
CITY           SKY/WX    TMP DP  RH WIND       PRES   REMARKS
SUPERIOR ARPT  CLOUDY    10   3  75 N5        30.13F WCI   1          
ASHLAND        MOCLDY    10   3  73 N3        30.13F                  
HAYWARD        CLOUDY    15   6  67 E5        30.06F WCI   8          
SIREN          CLOUDY    15   6  67 NE5       30.04F WCI   7          
CUMBERLAND     CLOUDY    18   9  68 E6        30.02F WCI   9          
RICE LAKE      CLOUDY    17  10  72 E10       30.04F WCI   5          
CHETEK         CLOUDY    15   8  72 E7        30.05F WCI   5          
LADYSMITH      CLOUDY    17   9  72 E9        30.09F WCI   5          
EAU CLAIRE     LGT SNOW  19  12  74 E9        30.03F WCI   8          
MENOMONIE      LGT SNOW  14  10  82 E10       30.04F WCI   1          
NEW RICHMOND   LGT SNOW  17  10  76 E9        30.01F WCI   5          
OSCEOLA        FLURRIES  19  11  70 E8        30.04F WCI   9          
$$
 
WIZ003>005-009-010-017-018-201200-
NORTH CENTRAL WISCONSIN
  
CITY           SKY/WX    TMP DP  RH WIND       PRES   REMARKS
MANITOWISH WTR NOT AVBL                                               
ARBOR VITAE    CLOUDY    14   9  81 SE5       30.10S WCI   6          
WOODRUFF       CLOUDY    14   9  81 SE5       30.10S WCI   6          
RHINELANDER    CLOUDY    13   6  74 E6        30.11F WCI   4          
EAGLE RIVER    FAIR       6   2  84 CALM      30.10F                  
LAND O LAKES   CLOUDY     5   1  86 CALM      30.12F                  
PHILLIPS       CLOUDY    14   8  76 E6        30.06F WCI   5          
TOMAHAWK       CLOUDY    10   6  84 CALM      30.11F                  
MEDFORD        CLOUDY    15   9  80 E9        30.06F WCI   3          
MERRILL        CLOUDY    14   9  82 E5        30.11F WCI   6          
$$
 
WIZ029-030-035-036-043>047-201200-
CENTRAL WISCONSIN
  
CITY           SKY/WX    TMP DP  RH WIND       PRES   REMARKS
WAUSAU         CLOUDY    15   9  76 E7        30.10F WCI   5          
MOSINEE        CLOUDY    18  12  79 E9        30.11F WCI   6          
MARSHFIELD     CLOUDY    18  12  77 E12       30.06F WCI   5          
STEVENS POINT  CLOUDY    16  11  82 NE7       30.11F WCI   6          
WAUPACA        MOCLDY    22  15  74 E5        30.15F WCI  16          
WAUTOMA        LGT SNOW  21  18  86 E9        30.11F FOG     WCI  11  
WISC RAPIDS    CLOUDY    20  10  65 E8        30.10F WCI  10          
CAMP DOUGLAS   LGT SNOW  21  21 100 E12       30.06F FOG     WCI   9  
$$
 
WIZ011>013-019>022-031-037>040-048>050-201200-
NORTHEAST WISCONSIN
  
CITY           SKY/WX    TMP DP  RH WIND       PRES   REMARKS
ANTIGO         CLOUDY    15  11  83 E9        30.11F WCI   3          
SHAWANO        CLOUDY    17  11  79 NE3       30.17F                  
OCONTO         CLOUDY    16  10  78 NE3       30.20F                  
STURGEON BAY   CLOUDY    21  15  78 E6        30.21F WCI  13          
GREEN BAY      CLOUDY    20  13  74 NE7       30.18F WCI  11          
MANITOWOC      CLOUDY    28  21  75 SE14      30.19F WCI  17          
APPLETON       CLOUDY    21  12  68 E6        30.14F WCI  14          
CLINTONVILLE   CLOUDY    18  12  78 NE6       30.16F WCI   9          
OSHKOSH        LGT SNOW  23  18  81 E6        30.14F WCI  16          
$$
 
WIZ032>034-041-042-053>061-201200-
SOUTHWEST WISCONSIN
  
CITY           SKY/WX    TMP DP  RH WIND       PRES   REMARKS
LA CROSSE      SNOW      23  21  92 E5        30.03F VSB 1/2 WCI  17  
SPARTA         LGT SNOW  22  20  92 CALM      30.05F                  
VIROQUA        CLOUDY    22  22 100 SE20      29.99F VSB 3/4 WCI   7  
BOSCOBEL       LGT SNOW  24  21  88 NE7       30.00F VSB 3/4 WCI  16  
PRAIRIE DU CHI LGT SNOW  26  23  89 E14G20    29.96F WCI  14          
PLATTEVILLE    CLOUDY    26  26 100 E16G22    30.00F WCI  13          
$$

WIZ056-057-062-063-064-067-068-201200-
SOUTH CENTRAL WISCONSIN
  
CITY           SKY/WX    TMP DP  RH WIND       PRES   REMARKS
REEDSBURG      LGT SNOW  21  21 100 E6        30.07F VSB 1   WCI  14  
BARABOO/DELLS  SNOW      21  19  92 E8        30.07F VSB 1/2 WCI  12  
LONE ROCK      SNOW      25  24  96 E16       30.05F VSB 1/2 WCI  12  
MINERAL POINT  LGT SNOW  27  27 100 E15G21    29.98F WCI  15          
MADISON        LGT SNOW  25  23  92 E12       30.08F VSB 3/4 WCI  14  
MIDDLETON      CLOUDY    27  26  96 E10       30.06F VSB 1   WCI  17  
WATERTOWN      LGT SNOW  27  26  96 E8        30.10F WCI  19          
MONROE         LGT SNOW  26  24  96 MISG      30.01F                  
JANESVILLE     LGT SNOW  28  28 100 E15       30.07F WCI  17          
$$
 
WIZ051-052-058>065-066-070>072-201200-
SOUTHEAST WISCONSIN
  
CITY           SKY/WX    TMP DP  RH WIND       PRES   REMARKS
MILWAUKEE      CLOUDY    31  23  72 E16       30.13F WCI  20          
WAUKESHA       FLURRIES  28  23  80 E12       30.13S WCI  18          
MILWAUKEE/TIMM CLOUDY    30  23  74 E7        30.14F WCI  23          
RACINE         CLOUDY    30  23  75 E13G23    30.14F WCI  20          
KENOSHA        LGT SNOW  31  25  78 E14       30.11F WCI  21          
FOND DU LAC    LGT SNOW  27  22  81 SE14G20   30.13F WCI  16          
SHEBOYGAN      CLOUDY    28  21  75 E13       30.16F WCI  17          
WEST BEND      FLURRIES  28  27  93 E12       30.13F WCI  18          
JUNEAU         LGT SNOW  27  22  82 E15       30.12F WCI  15          
$$

LSZ147-162-201200-
LAKE SUPERIOR
  
STATION/POSITION TIME  TEMP    WIND        PRES    WAVE
                       AIR SEA DIR/SP/G            HT/PER
                 (UTC) (F)     (DEG/KT/KT) (MB)    (FT/S)
DEVILS ISLAND    1100   15     140/  5/  7 1022.3F
SAXON HARBOR     1040    7        CALM     1020.7F
$$
 
LMZ867-665-643>646-201200-
LAKE MICHIGAN
  
STATION/POSITION TIME  TEMP    WIND        PRES    WAVE
                       AIR SEA DIR/SP/G            HT/PER
                 (UTC) (F)     (DEG/KT/KT) (MB)    (FT/S)
NORTHPORT PIER   1040   21      50/  2/  3 1024.0F
KEWAUNEE LAKESHO 1036   29     140/ 12/ 17 1022.2F
SHEBOYGAN LAKESH 1100   29     100/ 18/ 19 1022.1F
PORT WASHINGTON  1030   32     110/ 14/ 18 1022.4F
MILWAUKEE LAKESH 1050   31     100/ 15/ 18   N/A
KENOSHA   LAKESH 1100   31     110/ 18/ 20 1019.6
$$

TC  - TEMPERATURE IN CELSIUS
VSB - VISIBILITY IN STATUTE MILES
WCI - WIND CHILL INDEX
HX  - HEAT INDEX